TimePST,TemperatureF,Dew PointF,Humidity,Sea Level PressureIn,VisibilityMPH,Wind Direction,Wind SpeedMPH,Gust SpeedMPH,PrecipitationIn,Events,Conditions,WindDirDegrees,DateUTC
12:53 AM,37.0,32.0,82,30.04,10.0,East,4.6,-,N/A,,Clear,90,2013-02-21 08:53:00
1:53 AM,37.9,32.0,79,30.06,10.0,East,3.5,-,N/A,,Clear,80,2013-02-21 09:53:00
2:53 AM,36.0,32.0,86,30.07,10.0,ENE,4.6,-,N/A,,Clear,60,2013-02-21 10:53:00
3:53 AM,37.0,32.0,82,30.10,10.0,NE,4.6,-,N/A,,Partly Cloudy,40,2013-02-21 11:53:00
4:53 AM,35.1,32.0,89,30.11,10.0,Calm,Calm,-,N/A,,Partly Cloudy,0,2013-02-21 12:53:00
5:53 AM,37.0,30.9,79,30.11,10.0,Calm,Calm,-,N/A,,Clear,0,2013-02-21 13:53:00
6:53 AM,34.0,30.9,89,30.13,10.0,NNW,3.5,-,N/A,,Clear,330,2013-02-21 14:53:00
7:53 AM,39.9,33.1,77,30.17,10.0,NNE,8.1,-,N/A,,Clear,20,2013-02-21 15:53:00
8:53 AM,46.0,35.1,66,30.18,10.0,East,5.8,-,N/A,,Clear,90,2013-02-21 16:53:00
9:53 AM,48.9,36.0,61,30.18,10.0,West,4.6,-,N/A,,Clear,260,2013-02-21 17:53:00
10:53 AM,50.0,37.0,61,30.19,10.0,NW,8.1,-,N/A,,Clear,320,2013-02-21 18:53:00
11:53 AM,54.0,35.1,49,30.17,10.0,Variable,6.9,-,N/A,,Clear,0,2013-02-21 19:53:00
12:53 PM,57.0,32.0,39,30.14,10.0,NW,8.1,19.6,N/A,,Clear,320,2013-02-21 20:53:00
1:53 PM,57.9,30.9,36,30.14,10.0,NW,8.1,17.3,N/A,,Clear,310,2013-02-21 21:53:00
2:53 PM,59.0,27.0,29,30.12,10.0,NW,9.2,18.4,N/A,,Clear,320,2013-02-21 22:53:00
3:53 PM,59.0,27.0,29,30.11,10.0,NW,8.1,-,N/A,,Clear,320,2013-02-21 23:53:00
4:53 PM,57.0,30.0,36,30.11,10.0,WNW,5.8,-,N/A,,Clear,300,2013-02-22 00:53:00
5:53 PM,52.0,34.0,50,30.12,10.0,WNW,3.5,-,N/A,,Clear,290,2013-02-22 01:53:00
6:53 PM,46.9,32.0,56,30.13,10.0,Calm,Calm,-,N/A,,Clear,0,2013-02-22 02:53:00
7:53 PM,46.9,30.0,52,30.14,10.0,NNW,3.5,-,N/A,,Clear,340,2013-02-22 03:53:00
8:53 PM,42.1,34.0,73,30.14,10.0,Calm,Calm,-,N/A,,Clear,0,2013-02-22 04:53:00
9:53 PM,43.0,32.0,65,30.16,10.0,Calm,Calm,-,N/A,,Clear,0,2013-02-22 05:53:00
10:53 PM,42.1,33.1,70,30.17,10.0,NNW,3.5,-,N/A,,Clear,330,2013-02-22 06:53:00
11:53 PM,44.1,33.1,65,30.17,10.0,Calm,Calm,-,N/A,,Clear,0,2013-02-22 07:53:00